Regional Weather Roundup
Issued by NWS

Home | Current Version | Previous Version | Text Only | Print | Product List | Glossary Off
Versions: 1 2 3 4 5 6 7 8 9 10 11 12 13 14 15 16 17 18 19 20 21 22 23 24 25 26 27 28 29 30 31 32 33 34 35 36 37 38 39 40 41 42 43 44 45 46 47 48 49 50

370
ASUS44 KJAN 300910
RWRMS

MISSISSIPPI HOURLY WEATHER ROUNDUP
NATIONAL WEATHER SERVICE JACKSON MS
400 AM CDT TUE SEP 30 2014

NOTE: "FAIR: INDICATES FEW OR NO CLOUDS BELOW 12,000 FEET WITH NO
SIGNIFICANT WEATHER AND/OR OBSTRUCTIONS TO VISIBILITY.

MSZ001>002-007>008-010>013-018>021-025>028-034>036-301000-
NORTHWEST MISSISSIPPI

CITY           SKY/WX    TMP DP  RH WIND       PRES   REMARKS
CLARKSDALE     FAIR      63  63 100 CALM      29.92F
CLEVELAND      FAIR      63  62  94 CALM      29.91S
GREENWOOD      CLEAR     62  60  93 NE5       29.91S
GREENVILLE     PTCLDY    64  59  83 CALM      29.90S
GRENADA        FAIR      61  59  94 CALM      29.92S
OLIVE BRANCH   CLEAR     63  63 100 CALM      29.93S
OXFORD         FAIR      59  59 100 CALM      29.94S
TUNICA         SUNNY     59  59 100 CALM      29.93S
$$

MSZ003>006-009-014>017-022>024-029>033-037>039-301000-
NORTHEAST MISSISSIPPI

CITY           SKY/WX    TMP DP  RH WIND       PRES   REMARKS
COLUMBUS AFB   CLEAR     61  61 100 CALM      29.92R
CORINTH        FOG       59  57  94 CALM      29.93S VSB 3/4
GOLDN TRIANGLE CLEAR     63  59  88 CALM      29.91R
STARKVILLE     FAIR      61  59  94 CALM      29.92R
TUPELO         CLEAR     63  60  90 NE5       29.92S
$$

MSZ040-058-301000-
CENTRAL MISSISSIPPI

CITY           SKY/WX    TMP DP  RH WIND       PRES   REMARKS
JACKSON INTL   CLEAR     67  65  93 CALM      29.90S
JACKSON HAWKNS CLEAR     68  65  90 CALM      29.90S
MERIDIAN KEY   CLEAR     64  63  96 CALM      29.91R
MERIDIAN NAS   CLEAR     66  64  93 CALM      29.91S
RAYMOND        HAZE      64  59  82 CALM      29.90S VSB<1/4
VICKSBURG      CLEAR     66  64  93 N3        29.89S
$$

MSZ059>079-301000-
SOUTH MISSISSIPPI

CITY           SKY/WX    TMP DP  RH WIND       PRES   REMARKS
BROOKHAVEN     FAIR      66  66 100 CALM      29.91S FOG
COLUMBIA       FAIR      68  66  94 CALM      29.88R FOG
HATTIESBURG    CLEAR     70  68  93 CALM      29.90R FOG
MCCOMB         CLEAR     70  66  87 CALM      29.89S
NATCHEZ        CLEAR     70  66  88 CALM      29.89S
PINE BELT      CLEAR    N/A N/A N/A CALM      29.90R
$$

MSZ080>082-301000-
COASTAL MISSISSIPPI

CITY           SKY/WX    TMP DP  RH WIND       PRES   REMARKS
BILOXI         CLEAR     72  72 100 NE5       29.87S
PASCAGOULA     CLEAR     69  68  96 N3        29.86F FOG
GULFPORT       CLEAR     72  70  93 CALM      29.86S
$$



USA.gov is the U.S. government's official web portal to all federal, state and local government web resources and services.